DELTA 1 DEB, 10707

Orbit data source: Space-Track

DELTA 1 DEB, 10707 is space debris in LEO originally from a launch on Thu, 29 Jul 1976 UTC launched from the Air Force Western Test Range (AFWTR). Debris objects in space refer to the collection of defunct objects orbiting the Earth. Examples of debris include non-operational satellites, rocket bodies, and fragments generated from explosions, collisions, or faulty payload assembly.

Loading next visibility...
DELTA 1 DEB details
Identifier
10707, 1976-077AC
Orbit
LEO
Last TLE update12 hours ago
Origin
Flag of USGSFC (US)
ManufacturerUnknown
MissionSpacecraft
Bus & MotorUnknown
MassUnknown
Launch date (UTC)
1976-07-29 (48 years ago)
Launch vehicleUnknown
Launch site
Air Force Western Test Range (AFWTR)
Object type
Payload
Rocket body
Debris
Shape & HBRUnknown
Radar Cross SectionSmall (<0.1 m²)

Expand to show TLE details & history

TLE from 12 hours ago
0 DELTA 1 DEB
1 10707U 76077AC  24361.09748931  .00000389  00000-0  48931-2 0  9996
2 10707 102.2378  39.6957 0268754 141.6227 281.2210 11.98079284 87903
Epoch: 2024-12-26T02:20Z
Definitive object data (Epoch: 2024-12-26T02:20:23.076Z)
Latitude57.72862°
Longitude-110.4705°
Altitude1,662.404 km
Speed7.063 km/s
True Right ascension01h 18m 49s
True Declination57° 35' 26"
Sunlit
Object was in daylight at TLE epoch
Visualization TLE readout
Latitude71.07055°
Longitude128.99424°
Altitude1,524.376 km
Speed7.187 km/s
Apparent Right ascension23h 53m 30s
Apparent Declination41° 49' 15"
Sunlit
Object is in daylight
Visualization observer readout
Local Sidereal Time13:58:15
Azimuth22.745° NE
Elevation-3.503°
Doppler factor1
Orbital elements
Apogee altitude1,903.869 km
Perigee altitude1,470.356 km
Semi-major axis8,065.25 km
Eccentricity0.0268754
Inclination102.2378°
RAAN39.6957°
Arg. of periapsis141.6227°
True anomaly278.18173°
Mean anomaly281.221°
Eccentric anomaly279.70318°
Mean motion2.99651 °/min
BSTAR0.0048931
Orbital period120.14 mins
Loading maneuver chart data...
Loading historical data...
Loading historical data...
Loading historical data...
Loading historical data...
Loading historical data...
Loading historical data...
Loading historical data...

DELTA 1 DEB Visibility forecast

Observer location: undefined°, undefined

Span
Click to sort rows by Start time (UTC) header in descending order
Start Az.
Max El. time (UTC)
Max El. Az.
Max El.
End time (UTC)
End Az.
14 mins2024-12-26 14:41:22.961Z37.173° NE2024-12-26 14:48:22.961Z98.922° ESE29.272°2024-12-26 14:55:22.961Z159.472° S
13 mins2024-12-26 16:40:22.961Z3.543° NNE2024-12-26 16:46:22.961Z297.748° NW37.8°2024-12-26 16:53:22.961Z226.963° WSW
10 mins2024-12-27 00:16:22.961Z80.662° E2024-12-27 00:21:22.961Z45.72° ENE17.419°2024-12-27 00:26:22.961Z10.885° NNE
17 mins2024-12-27 02:09:22.961Z148.373° SSE2024-12-27 02:17:22.961Z70.639° E43.784°2024-12-27 02:26:22.961Z345.961° N
13 mins2024-12-27 04:09:22.961Z217.411° SW2024-12-27 04:15:22.961Z260.857° W24.022°2024-12-27 04:22:22.961Z314.405° NW
|